User: anonymous   Login
Location: Unspecified
(0.0000°N, 0.0000°E)
Time: 10:13:12
(UTC+00:00)
Language:

CLOUDSAT - Orbit

View from above orbital plane
View from above orbital plane
View from above satellite
View from above satellite

Ground track
Ground track

The orbit data is extracted from the following two-line orbital elements,

1 29107U 06016A   19024.13254655  .00000078  00000-0  24774-4 0  9992
2 29107  98.1703 330.0758 0001990 136.4056 223.7303 14.62294286677902
Epoch (UTC): 24 January 2019 03:10:52
Eccentricity: 0.0001990
inclination: 98.1703°
perigee height: 684 km
apogee height: 687 km
right ascension of ascending node: 330.0758°
argument of perigee: 136.4056°
revolutions per day: 14.62294286
mean anomaly at epoch: 223.7303°
orbit number at epoch: 67790

The dashed part of the orbit path shows where the satellite is in the earth's shadow,  

DLR